STARLINK-35042

Last updated on Thu Oct 02 2025 00:02:05 GMT+0000 (Coordinated Universal Time)

1 65481U 25195Z 25274.27112705 .00143681 00000+0 25395-2 0 9999 2 65481 53.1590 281.6661 0001073 66.6523 293.4599 15.49361883 5529

Satellite not in orbit

STARLINK-35042